Curtin, Australia

5:01 AM AWST on December 19, 2017 (GMT +0800)
Curtin

Weather History for YCIN - June, 2014

Change the Weather History Date:

Wednesday, June 11, 2014

  Actual Average Record
Temperature  
Mean Temperature 71 °F -  
Max Temperature 86 °F - - ()
Min Temperature 56 °F - - ()
Cooling Degree Days 6    
Growing Degree Days 21 (Base 50)    
Moisture  
Dew Point 34 °F    
Average Humidity 23    
Maximum Humidity 34    
Minimum Humidity 7    
Precipitation  
Precipitation 0.00 in - - ()
Sea Level Pressure  
Sea Level Pressure 29.85 in    
Wind  
Wind Speed 8 mph ()    
Max Wind Speed 10 mph    
Max Gust Speed -    
T = Trace of Precipitation, MM = Missing Value Source: Averaged Metar Reports

Daily Weather History Graph

Daily Weather History Graph

Search for Another Location

Airport or City:

Trip Planner

Search our weather history database for the weather conditions in past years. The results will help you decide how hot, cold, wet, or windy it might be!

Date:

Astronomy

Jun. 11, 2014 Rise Set
Actual Time 6:11 AM AWST 5:17 PM AWST
Civil Twilight 5:47 AM AWST 5:40 PM AWST
Nautical Twilight 5:20 AM AWST 6:07 PM AWST
Astronomical Twilight 4:53 AM AWST 6:34 PM AWST
Moon 3:40 PM AWST (6/11) 3:55 AM AWST (6/11)
Length of Visible Light 11h 52m
Length of Day
11h 05m
Waxing Gibbous, 95% of the Moon is Illuminated
Jun 11
Waxing Gibbous
Jun 13
Full
Jun 20
Last Quarter
Jun 27
New
Jul 5
First Quarter

Hourly Weather History & Observations

Time (AWST) Temp. Dew Point Humidity Pressure Visibility Wind Dir Wind Speed Gust Speed Precip Events Conditions
12:00 AM 67 °F 35 °F 19% 29.89 in - ESE 10.4 mph - -  
12:00 AM 68.0 °F 35.6 °F 30% 29.89 in - ESE 10.4 mph - N/A   Unknown
1:00 AM 64.4 °F 35.6 °F 34% 29.89 in - SE 9.2 mph - N/A   Unknown
2:00 AM 64.4 °F 35.6 °F 34% 29.86 in - SE 8.1 mph - N/A   Unknown
3:00 AM 63 °F 33 °F 21% 29.86 in - ESE 9.2 mph - -  
3:00 AM 62.6 °F 33.8 °F 34% 29.86 in - ESE 9.2 mph - N/A   Unknown
4:00 AM 62.6 °F 32.0 °F 32% 29.86 in - ESE 9.2 mph - N/A   Unknown
5:00 AM 62.6 °F 32.0 °F 32% 29.86 in - ESE 9.2 mph - N/A   Unknown
6:00 AM 62 °F 33 °F 21% 29.87 in - ESE 8.1 mph - -  
6:00 AM 62.6 °F 32.0 °F 32% 29.86 in - ESE 8.1 mph - N/A   Unknown
7:00 AM 64.4 °F 33.8 °F 32% 29.86 in - ESE 9.2 mph - N/A   Unknown
8:00 AM 69.8 °F 37.4 °F 31% 29.89 in - East 8.1 mph - N/A   Unknown
9:00 AM 76 °F 38 °F 15% 29.90 in - ENE 9.2 mph - -  
9:00 AM 77.0 °F 37.4 °F 24% 29.89 in - ENE 9.2 mph - N/A   Unknown
10:00 AM 80.6 °F 39.2 °F 23% 29.89 in - ENE 8.1 mph - N/A   Unknown
11:00 AM 82.4 °F 37.4 °F 20% 29.86 in - SSE 6.9 mph - N/A   Unknown
12:00 PM 84 °F 37 °F 10% 29.84 in - SSE 5.8 mph - -  
12:00 PM 84.2 °F 37.4 °F 19% 29.83 in - SSE 5.8 mph - N/A   Unknown
1:00 PM 84.2 °F 33.8 °F 16% 29.80 in - South 8.1 mph - N/A   Unknown
2:00 PM 86.0 °F 32.0 °F 14% 29.77 in - SE 8.1 mph - N/A   Unknown
3:00 PM 85 °F 31 °F 7% 29.77 in - SSW 10.4 mph - -  
3:00 PM 86.0 °F 30.2 °F 13% 29.77 in - SSW 10.4 mph - N/A   Unknown
4:00 PM 84.2 °F 30.2 °F 14% 29.77 in - South 8.1 mph - N/A   Unknown
5:00 PM 80.6 °F 32.0 °F 17% 29.80 in - South 9.2 mph - N/A   Unknown
6:00 PM 72 °F 34 °F 14% 29.82 in - SSE 5.8 mph - -  
6:00 PM 71.6 °F 33.8 °F 25% 29.83 in - SSE 5.8 mph - N/A   Unknown
7:00 PM 71.6 °F 35.6 °F 27% 29.83 in - SSE 6.9 mph - N/A   Unknown
8:00 PM 71.6 °F 33.8 °F 25% 29.86 in - SSE 6.9 mph - N/A   Unknown
9:00 PM 71 °F 33 °F 14% 29.86 in - SE 6.9 mph - -  
9:00 PM 71.6 °F 32.0 °F 23% 29.86 in - SE 6.9 mph - N/A   Unknown
10:00 PM 66.2 °F 33.8 °F 30% 29.86 in - SSE 6.9 mph - N/A   Unknown
11:00 PM 64.4 °F 33.8 °F 32% 29.86 in - SSE 8.1 mph - N/A   Unknown